Weather History for Sitka, AK

Change the Weather History Date:

Friday, November 16, 2012

  Actual Average Record
Temperature  
Mean Temperature 42 °F -  
Max Temperature 45 °F 40 °F 113 °F (1996)
Min Temperature 39 °F 33 °F 18 °F (1963)
Degree Days  
Heating Degree Days 23    
Moisture  
Dew Point 34 °F    
Average Humidity 75    
Maximum Humidity 87    
Minimum Humidity 63    
Precipitation  
Precipitation 0.05 in - - ()
Sea Level Pressure  
Sea Level Pressure 29.29 in    
Wind  
Wind Speed 14 mph (ESE)    
Max Wind Speed 21 mph    
Max Gust Speed 29 mph    
Visibility 10 miles    
Events Rain    
Averages and records for this station are not official NWS values.
T = Trace of Precipitation, MM = Missing Value Source: NWS Daily Summary

Daily Weather History Graph

Daily Weather History Graph

Search for Another Location

Airport:

Trip Planner

Search our weather history database for the weather conditions in past years. The results will help you decide how hot, cold, wet, or windy it might be!

Date:

Astronomy

Nov. 16, 2012 Rise Set
Actual Time 7:46 AM AKST 3:45 PM AKST
Civil Twilight 7:02 AM AKST 4:29 PM AKST
Nautical Twilight 6:15 AM AKST 5:16 PM AKST
Astronomical Twilight 5:29 AM AKST 6:02 PM AKST
Moon 10:58 AM AKST (11/16) 6:45 PM AKST (11/16)
Length of Visible Light 9h 27m
Length of Day
7h 58m
Waxing Crescent, 13% of the Moon is Illuminated
Nov 16
Waxing Crescent
Nov 20
First Quarter
Nov 28
Full
Dec 6
Last Quarter
Dec 12
New

Hourly Weather History & Observations

Time (AKST) Temp. Windchill Dew Point Humidity Pressure Visibility Wind Dir Wind Speed Gust Speed Precip Events Conditions
12:53 AM 45.0 °F 37.1 °F 33.1 °F 63% 29.29 in 10.0 mi ESE 19.6 mph 25.3 mph N/A   Overcast
1:53 AM 44.1 °F 35.7 °F 33.1 °F 65% 29.27 in 10.0 mi ESE 20.7 mph 25.3 mph N/A   Overcast
3:53 AM 44.1 °F 35.7 °F 33.1 °F 65% 29.20 in 10.0 mi ESE 20.7 mph 27.6 mph N/A   Overcast
4:53 AM 44.1 °F 36.2 °F 32.0 °F 63% 29.21 in 10.0 mi SE 18.4 mph 28.8 mph N/A   Overcast
5:53 AM 43.0 °F 34.5 °F 33.1 °F 68% 29.21 in 10.0 mi ESE 19.6 mph 26.5 mph 0.00 in   Overcast
6:53 AM 43.0 °F 35.7 °F 33.1 °F 68% 29.22 in 10.0 mi ESE 15.0 mph - N/A   Overcast
7:27 AM 42.8 °F 35.4 °F 33.8 °F 70% 29.23 in 7.0 mi ESE 15.0 mph - 0.00 in Rain Light Rain
7:53 AM 39.9 °F 32.1 °F 35.1 °F 83% 29.24 in 7.0 mi East 13.8 mph - 0.02 in Rain Light Rain
8:42 AM 39.2 °F 31.6 °F 35.6 °F 87% 29.25 in 10.0 mi East 12.7 mph - 0.03 in Rain Light Rain
8:53 AM 39.9 °F 33.4 °F 36.0 °F 86% 29.25 in 10.0 mi East 10.4 mph - 0.03 in Rain Light Rain
9:53 AM 41.0 °F 37.1 °F 36.0 °F 82% 29.26 in 10.0 mi ESE 5.8 mph - 0.00 in   Overcast
10:53 AM 41.0 °F 35.8 °F 36.0 °F 82% 29.28 in 10.0 mi East 8.1 mph - N/A   Overcast
11:53 AM 44.1 °F 40.1 °F 37.0 °F 76% 29.30 in 10.0 mi ESE 6.9 mph - N/A   Mostly Cloudy
12:53 PM 44.1 °F 40.1 °F 35.1 °F 71% 29.31 in 10.0 mi SE 6.9 mph - N/A   Overcast
1:53 PM 44.1 °F 38.6 °F 35.1 °F 71% 29.32 in 10.0 mi ESE 10.4 mph - N/A   Mostly Cloudy
2:53 PM 43.0 °F 37.7 °F 34.0 °F 71% 29.34 in 10.0 mi ESE 9.2 mph - N/A   Mostly Cloudy
3:53 PM 43.0 °F 37.2 °F 34.0 °F 71% 29.35 in 10.0 mi ESE 10.4 mph - N/A   Overcast
4:53 PM 42.1 °F 37.7 °F 33.1 °F 70% 29.35 in 10.0 mi East 6.9 mph - N/A   Overcast
5:53 PM 42.1 °F 40.2 °F 34.0 °F 73% 29.34 in 10.0 mi East 3.5 mph - 0.00 in   Mostly Cloudy
6:53 PM 43.0 °F 40.3 °F 34.0 °F 71% 29.35 in 10.0 mi ESE 4.6 mph - N/A   Mostly Cloudy
7:53 PM 39.9 °F 35.8 °F 35.1 °F 83% 29.35 in 10.0 mi NNE 5.8 mph - N/A   Overcast
8:53 PM 41.0 °F 39.0 °F 34.0 °F 76% 29.35 in 10.0 mi Variable 3.5 mph - N/A   Overcast
9:53 PM 39.9 °F - 35.1 °F 83% 29.34 in 10.0 mi Calm Calm - N/A   Overcast
10:53 PM 39.9 °F 36.7 °F 36.0 °F 86% 29.34 in 10.0 mi NNW 4.6 mph - N/A   Overcast
11:53 PM 39.0 °F - 35.1 °F 86% 29.32 in 10.0 mi Calm Calm - N/A   Mostly Cloudy